Torna al catalogo

COSMOS 1860 FUEL CORE

AttivoLEO
NORAD 18241·DEBRIS·🇷🇺 Russia

Lanciato Jun 18, 1987 da Baikonur Cosmodrome

Loading…

Prossimi Passaggi (prossime 24 ore)

TLE

AggiornatoSource: Space-Track

Epoca: Sep 14, 2026, 01:02 UTC

1 18241U 87052D   26257.04365336 -.00000091  00000-0 -10479-5 0  9998
2 18241  65.0068 257.8901 0021829 131.6627 262.4971 13.88980199650966

Traccia COSMOS 1860 FUEL CORE in tempo reale con AllMySat

Download on the App Store